San Antonio, TX

12:39 AM CST on February 21, 2017 (GMT -0600)
San Antonio International

Weather History for KSAT - May, 2013

Change the Weather History Date:

Tuesday, May 28, 2013

  Actual Average Record
Temperature  
Mean Temperature 83 °F 80 °F  
Max Temperature 90 °F 90 °F 103 °F (1927)
Min Temperature 75 °F 70 °F 55 °F (1976)
Degree Days  
Heating Degree Days 0 0  
Month to date heating degree days 15 0  
Since 1 July heating degree days 1206 1494  
Cooling Degree Days 18 15  
Month to date cooling degree days 301 325  
Year to date cooling degree days 562 584  
Growing Degree Days 32 (Base 50)    
Moisture  
Dew Point 70 °F    
Average Humidity 71    
Maximum Humidity 87    
Minimum Humidity 55    
Precipitation  
Precipitation T in 0.15 in 1.31 in (1940)
Month to date precipitation 13.19 3.55  
Year to date precipitation 19.84 11.51  
Snow  
Snow 0.00 in - - ()
Month to date snowfall 0.0  
Since 1 July snowfall T  
Snow Depth 0.00 in    
Sea Level Pressure  
Sea Level Pressure 29.81 in    
Wind  
Wind Speed 17 mph (SSE)    
Max Wind Speed 26 mph    
Max Gust Speed 33 mph    
Visibility 9 miles    
Events Rain    
T = Trace of Precipitation, MM = Missing Value Source: NWS Daily Summary

Daily Weather History Graph

Daily Weather History Graph

Search for Another Location

Airport or City:

Trip Planner

Search our weather history database for the weather conditions in past years. The results will help you decide how hot, cold, wet, or windy it might be!

Date:

Astronomy

May. 28, 2013 Rise Set
Actual Time 6:35 AM CDT 8:27 PM CDT
Civil Twilight 6:08 AM CDT 8:54 PM CDT
Nautical Twilight 5:36 AM CDT 9:26 PM CDT
Astronomical Twilight 5:02 AM CDT 10:00 PM CDT
Moon No Moon Rise 10:18 AM CDT (5/28)
Length of Visible Light 14h 45m
Length of Day
13h 52m
Waning Gibbous, 82% of the Moon is Illuminated
May 28
Waning Gibbous
May 31
Last Quarter
Jun 8
New
Jun 16
First Quarter
Jun 23
Full

Hourly Weather History & Observations

Time (CDT) Temp. Heat Index Dew Point Humidity Pressure Visibility Wind Dir Wind Speed Gust Speed Precip Events Conditions
12:51 AM 75.9 °F - 70.0 °F 82% 29.87 in 8.0 mi SSE 18.4 mph 25.3 mph N/A   Mostly Cloudy
1:47 AM 75.2 °F - 69.8 °F 83% 29.91 in 10.0 mi SSE 17.3 mph 21.9 mph N/A   Overcast
1:51 AM 75.0 °F - 70.0 °F 84% 29.86 in 10.0 mi SSE 16.1 mph 21.9 mph N/A   Overcast
2:46 AM 75.2 °F - 69.8 °F 83% 29.89 in 8.0 mi SSE 16.1 mph 20.7 mph N/A   Overcast
2:51 AM 75.0 °F - 70.0 °F 84% 29.83 in 8.0 mi SSE 15.0 mph - N/A   Overcast
3:51 AM 75.0 °F - 70.0 °F 84% 29.82 in 8.0 mi SSE 13.8 mph - N/A   Overcast
4:47 AM 75.2 °F - 69.8 °F 83% 29.87 in 8.0 mi South 16.1 mph 21.9 mph N/A   Overcast
4:51 AM 75.0 °F - 69.1 °F 82% 29.82 in 8.0 mi SSE 13.8 mph 21.9 mph N/A   Overcast
5:51 AM 75.0 °F - 69.1 °F 82% 29.83 in 10.0 mi SSE 12.7 mph 20.7 mph N/A   Mostly Cloudy
6:51 AM 75.0 °F - 70.0 °F 84% 29.82 in 9.0 mi SSE 13.8 mph 21.9 mph N/A   Overcast
7:47 AM 75.2 °F - 71.6 °F 89% 29.87 in 10.0 mi SSE 13.8 mph - N/A   Overcast
7:51 AM 75.9 °F - 71.1 °F 85% 29.82 in 10.0 mi SSE 11.5 mph 20.7 mph N/A   Overcast
8:51 AM 78.1 °F - 70.0 °F 76% 29.83 in 9.0 mi South 16.1 mph 23.0 mph N/A   Overcast
9:25 AM 77.0 °F - 69.8 °F 78% 29.88 in 10.0 mi South 13.8 mph - N/A   Mostly Cloudy
9:39 AM 80.6 °F 84.6 °F 71.6 °F 74% 29.88 in 10.0 mi South 13.8 mph 20.7 mph N/A   Mostly Cloudy
9:51 AM 81.0 °F 84.9 °F 71.1 °F 72% 29.83 in 10.0 mi SSE 18.4 mph 26.5 mph N/A   Mostly Cloudy
10:51 AM 81.0 °F 84.1 °F 69.1 °F 67% 29.83 in 10.0 mi SSE 16.1 mph 26.5 mph N/A   Mostly Cloudy
11:51 AM 82.0 °F 85.9 °F 70.0 °F 67% 29.83 in 10.0 mi South 15.0 mph 21.9 mph N/A   Overcast
12:51 PM 84.9 °F 89.4 °F 70.0 °F 61% 29.81 in 10.0 mi SSE 11.5 mph - N/A   Mostly Cloudy
1:51 PM 87.1 °F 92.0 °F 70.0 °F 57% 29.78 in 10.0 mi SSE 17.3 mph 28.8 mph N/A   Mostly Cloudy
2:51 PM 88.0 °F 92.1 °F 69.1 °F 53% 29.76 in 10.0 mi SSE 17.3 mph 27.6 mph N/A   Mostly Cloudy
3:51 PM 88.0 °F 92.9 °F 70.0 °F 55% 29.75 in 10.0 mi SSE 19.6 mph - N/A   Mostly Cloudy
4:51 PM 88.0 °F 93.8 °F 71.1 °F 57% 29.73 in 10.0 mi SE 21.9 mph 27.6 mph N/A   Mostly Cloudy
5:51 PM 87.1 °F 92.0 °F 70.0 °F 57% 29.73 in 10.0 mi SE 23.0 mph 32.2 mph N/A   Mostly Cloudy
6:51 PM 84.9 °F 90.1 °F 71.1 °F 63% 29.71 in 10.0 mi SE 24.2 mph 28.8 mph N/A   Mostly Cloudy
7:51 PM 82.0 °F 85.9 °F 70.0 °F 67% 29.73 in 10.0 mi SE 23.0 mph 33.4 mph N/A   Mostly Cloudy
8:51 PM 80.1 °F 83.2 °F 70.0 °F 71% 29.76 in 10.0 mi SE 24.2 mph 31.1 mph N/A   Mostly Cloudy
9:51 PM 79.0 °F - 70.0 °F 74% 29.77 in 10.0 mi SE 18.4 mph 28.8 mph 0.00 in Rain Light Rain
10:51 PM 78.1 °F - 70.0 °F 76% 29.79 in 10.0 mi SE 17.3 mph 27.6 mph 0.00 in   Overcast
11:51 PM 78.1 °F - 70.0 °F 76% 29.82 in 10.0 mi SE 15.0 mph - N/A   Overcast